Location: San Pelegr�n
(42.1868°N, 0.0079°E)
Time: 03:56:45
(UTC+00:00)

H-2A R/B - Pass Details

Date: 24 January 2020
Orbit: 503 x 540 km, 97.3° (Epoch: 06 February)

Event Time Altitude Azimuth Distance (km) Brightness Sun altitude
Rises 17:42:41 0° 180° (S) 2,648 6.6 -7.6°
Reaches altitude 10° 17:44:49 10° 186° (S) 1,770 5.7 -7.9°
Maximum altitude 17:48:32 48° 261° (W) 706 3.9 -8.6°
Drops below altitude 10° 17:52:18 10° 337° (NNW) 1,801 5.5 -9.3°
Sets 17:54:30 0° 343° (NNW) 2,701 6.4 -9.6°
